Weather History for K8A0 - January, 2013

Change the Weather History Date:

Friday, January 11, 2013

  Actual Average (KGAD) Record (KGAD)
Temperature  
Mean Temperature 62 °F -  
Max Temperature 64 °F 49 °F 80 °F (1949)
Min Temperature 60 °F 30 °F 10 °F (1942)
Degree Days  
Heating Degree Days 3    
Growing Degree Days 12 (Base 50)    
Moisture  
Dew Point 63 °F    
Average Humidity 100    
Maximum Humidity 100    
Minimum Humidity 100    
Precipitation  
Precipitation 0.31 in - - ()
Sea Level Pressure  
Sea Level Pressure 30.10 in    
Wind  
Wind Speed 8 mph (South)    
Max Wind Speed 14 mph    
Max Gust Speed 21 mph    
Visibility 7 miles    
Events Rain    
Averages and records for this station are not official NWS values.
T = Trace of Precipitation, MM = Missing Value Source: NWS Daily Summary

Daily Weather History Graph

Daily Weather History Graph

Search for Another Location

Airport or City:

Trip Planner

Search our weather history database for the weather conditions in past years. The results will help you decide how hot, cold, wet, or windy it might be!

Date:

Astronomy

Jan. 11, 2013 Rise Set
Actual Time 6:51 AM CST 4:55 PM CST
Civil Twilight 6:24 AM CST 5:22 PM CST
Nautical Twilight 5:53 AM CST 5:53 PM CST
Astronomical Twilight 5:22 AM CST 6:23 PM CST
Moon 6:25 AM CST (1/11) 5:09 PM CST (1/11)
Length of Visible Light 10h 58m
Length of Day
10h 03m
Waning Crescent, 0% of the Moon is Illuminated
Jan 11
Waning Crescent
Jan 11
New
Jan 18
First Quarter
Jan 26
Full
Feb 3
Last Quarter

Hourly Weather History & Observations

Time (CST) Temp. Dew Point Humidity Pressure Visibility Wind Dir Wind Speed Gust Speed Precip Events Conditions
12:15 AM 64.4 °F 64.4 °F 100% 30.10 in 10.0 mi SSE 5.8 mph - N/A   Overcast
12:35 AM 64.4 °F 64.4 °F 100% 30.09 in 10.0 mi South 8.1 mph - N/A   Overcast
12:55 AM 64.4 °F 64.4 °F 100% 30.10 in 10.0 mi SSE 8.1 mph - N/A   Overcast
1:15 AM 64.4 °F 64.4 °F 100% 30.10 in 10.0 mi South 9.2 mph 18.4 mph N/A   Overcast
1:35 AM 64.4 °F 64.4 °F 100% 30.09 in 10.0 mi South 12.7 mph 19.6 mph N/A   Overcast
1:55 AM 64.4 °F 64.4 °F 100% 30.09 in 10.0 mi South 12.7 mph 19.6 mph N/A   Overcast
2:15 AM 64.4 °F 64.4 °F 100% 30.09 in 10.0 mi South 11.5 mph 20.7 mph N/A   Overcast
2:35 AM 64.4 °F 64.4 °F 100% 30.09 in 10.0 mi South 13.8 mph 20.7 mph N/A   Overcast
2:55 AM 64.4 °F 64.4 °F 100% 30.09 in 10.0 mi South 12.7 mph 20.7 mph N/A   Overcast
3:15 AM 64.4 °F 64.4 °F 100% 30.09 in 10.0 mi South 13.8 mph 20.7 mph N/A   Overcast
3:35 AM 64.4 °F 64.4 °F 100% 30.08 in 10.0 mi South 13.8 mph 19.6 mph N/A   Overcast
3:55 AM 64.4 °F 64.4 °F 100% 30.08 in 10.0 mi South 9.2 mph 17.3 mph N/A   Overcast
4:15 AM 62.6 °F 62.6 °F 100% 30.07 in 10.0 mi South 13.8 mph 18.4 mph N/A   Overcast
4:55 AM 62.6 °F 62.6 °F 100% 30.08 in 5.0 mi South 11.5 mph - N/A   Drizzle
5:15 AM 62.6 °F 62.6 °F 100% 30.09 in 7.0 mi South 9.2 mph - N/A Rain Light Rain
5:35 AM 60.8 °F 60.8 °F 100% 30.09 in 5.0 mi South 10.4 mph 17.3 mph N/A   Drizzle
5:55 AM 60.8 °F 60.8 °F 100% 30.10 in 5.0 mi South 10.4 mph 16.1 mph N/A Rain Rain
6:15 AM 60.8 °F 60.8 °F 100% 30.11 in 5.0 mi South 8.1 mph 17.3 mph N/A   Drizzle
6:35 AM 60.8 °F 60.8 °F 100% 30.11 in 7.0 mi South 9.2 mph - 0.01 in Rain Rain
6:55 AM 60.8 °F 60.8 °F 100% 30.12 in 5.0 mi South 9.2 mph - 0.01 in   Light Drizzle
7:15 AM 60.8 °F 60.8 °F 100% 30.12 in 7.0 mi South 9.2 mph - N/A Rain Rain
7:35 AM 60.8 °F 60.8 °F 100% 30.12 in 7.0 mi South 8.1 mph - 0.01 in   Overcast
7:55 AM 60.8 °F 60.8 °F 100% 30.12 in 10.0 mi South 10.4 mph - 0.01 in   Overcast
8:15 AM 62.6 °F 62.6 °F 100% 30.13 in 10.0 mi South 11.5 mph - N/A   Overcast
8:35 AM 62.6 °F 62.6 °F 100% 30.14 in 5.0 mi South 10.4 mph - N/A Rain Rain
9:15 AM 62.6 °F 62.6 °F 100% 30.14 in 5.0 mi SSW 9.2 mph - N/A   Overcast
9:35 AM 62.6 °F 62.6 °F 100% 30.14 in 7.0 mi South 6.9 mph - 0.01 in   Overcast
9:55 AM 62.6 °F 62.6 °F 100% 30.15 in 10.0 mi South 6.9 mph - 0.01 in   Overcast
10:15 AM 62.6 °F 62.6 °F 100% 30.14 in 10.0 mi South 6.9 mph - N/A   Overcast
10:55 AM 64.4 °F 64.4 °F 100% 30.12 in 10.0 mi South 8.1 mph - N/A   Overcast
11:15 AM 64.4 °F 64.4 °F 100% 30.12 in 10.0 mi South 9.2 mph - N/A   Overcast
12:15 PM 64.4 °F 64.4 °F 100% 30.10 in 10.0 mi South 8.1 mph - N/A Rain Light Rain
12:35 PM 62.6 °F 62.6 °F 100% 30.09 in 5.0 mi South 6.9 mph - N/A   Drizzle
12:55 PM 62.6 °F 62.6 °F 100% 30.09 in 2.5 mi South 5.8 mph - N/A   Drizzle
1:15 PM 62.6 °F - N/A% 30.09 in 7.0 mi South 6.9 mph - N/A   Overcast
1:35 PM 62.6 °F - N/A% 30.08 in 10.0 mi SSE 6.9 mph - N/A   Overcast
1:55 PM 62.6 °F - N/A% 30.08 in 10.0 mi South 6.9 mph - N/A   Overcast
2:15 PM 62.6 °F - N/A% 30.08 in 4.0 mi SSE 4.6 mph - 0.01 in   Light Drizzle
2:35 PM 64.4 °F - N/A% 30.08 in 7.0 mi SSE 6.9 mph - 0.01 in   Overcast
2:55 PM 62.6 °F - N/A% 30.09 in 5.0 mi South 4.6 mph - 0.01 in Rain Rain
3:15 PM 62.6 °F - N/A% 30.08 in 3.0 mi South 5.8 mph - 0.01 in   Drizzle
3:35 PM 62.6 °F - N/A% 30.08 in 2.0 mi South 6.9 mph - 0.03 in Rain Light Rain
3:55 PM 62.6 °F - N/A% 30.08 in 2.5 mi South 6.9 mph - 0.03 in   Light Drizzle
4:15 PM 62.6 °F - N/A% 30.08 in 2.5 mi South 8.1 mph - 0.01 in   Drizzle
4:35 PM 62.6 °F - N/A% 30.09 in 4.0 mi SSW 9.2 mph - 0.02 in   Drizzle
4:55 PM 62.6 °F - N/A% 30.09 in 4.0 mi South 8.1 mph - 0.03 in   Drizzle
5:15 PM 62.6 °F - N/A% 30.09 in 3.0 mi South 4.6 mph - N/A   Drizzle
5:35 PM 62.6 °F - N/A% 30.09 in 4.0 mi Calm Calm - 0.01 in Rain Heavy Rain
5:55 PM 62.6 °F - N/A% 30.09 in 3.0 mi South 3.5 mph - 0.04 in Rain Light Rain
6:15 PM 62.6 °F - N/A% 30.09 in 2.5 mi Calm Calm - 0.02 in Rain Heavy Rain
6:35 PM 62.6 °F - N/A% 30.09 in 2.5 mi Calm Calm - 0.06 in Rain Rain
6:55 PM 62.6 °F - N/A% 30.09 in 2.5 mi West 3.5 mph - 0.10 in Rain Heavy Rain
7:15 PM 62.6 °F - N/A% 30.09 in 5.0 mi SSE 3.5 mph - 0.01 in   Light Drizzle
7:35 PM 62.6 °F - N/A% 30.09 in 4.0 mi South 5.8 mph 18.4 mph 0.06 in Rain Light Rain
7:55 PM 62.6 °F - N/A% 30.09 in 5.0 mi SE 4.6 mph - 0.06 in   Haze
8:15 PM 62.6 °F - N/A% 30.09 in 4.0 mi SSE 5.8 mph - N/A Rain Rain
8:35 PM 62.6 °F - N/A% 30.10 in 3.0 mi South 4.6 mph - 0.01 in Rain Heavy Rain
8:55 PM 62.6 °F - N/A% 30.10 in 4.0 mi South 4.6 mph - 0.01 in   Haze
9:15 PM 62.6 °F - N/A% 30.10 in 4.0 mi SSE 3.5 mph - N/A Rain Light Rain
9:35 PM 62.6 °F - N/A% 30.10 in 4.0 mi SSE 4.6 mph - N/A   Haze
9:55 PM 62.6 °F - N/A% 30.10 in 5.0 mi South 5.8 mph - N/A Rain Rain
10:15 PM 64.4 °F - N/A% 30.10 in 4.0 mi South 6.9 mph - N/A   Drizzle
10:35 PM 64.4 °F - N/A% 30.09 in 10.0 mi South 5.8 mph - N/A   Overcast
11:15 PM 64.4 °F - N/A% 30.09 in 10.0 mi South 8.1 mph - N/A   Overcast
11:35 PM 64.4 °F 64.4 °F 100% 30.09 in 10.0 mi South 9.2 mph - N/A   Overcast
11:55 PM 64.4 °F 64.4 °F 100% 30.09 in 10.0 mi South 11.5 mph 16.1 mph N/A   Overcast